Flag for Germany Weather past 2 weeks in Stuhr, Lower Saxony, Germany

Now
30 °F

Partly cloudy.


Feels Like: 22 °F
Forecast: 28 / 34 °F
Wind: 9 mph from Southwest

Location: Bremen Airport

Current Time: Dec 26, 2014 at 6:13:51 PM

Latest Report: Dec 26, 2014 at 5:50 PM


Visibility: 4 mi

Pressure: 30.27 "Hg

Humidity: 100%

Dew point: 30 °F

Location of StuhrLocation

Historic Weather in Stuhr — Graph

°F

Stuhr temperature yesterday

Maximum temperature yesterday: 45 °F (at 1:20 PM)
Minimum temperature yesterday: 36 °F (at 9:50 PM)
Average temperature yesterday: 40 °F

Past Weeks' High & Low Weather Summary

 TemperatureHumidityPressure
High54 °F (Dec 18, 3:50 PM)100% (Dec 12, 4:50 AM)30.36 "Hg (Dec 12, 4:50 AM)
Low25 °F (Dec 26, 7:50 AM)61% (Dec 25, 1:20 PM)29.24 "Hg (Dec 12, 11:50 AM)
Average43 °F89%29.83 "Hg
* Reported Dec 11 4:20 PM — Dec 26 4:20 PM, Stuhr, Weather by CustomWeather, © 2014

Note: Actual official high and low records may vary slightly from our data, if they occured in-between our weather recording intervals... More about our weather records

Advertising

Stuhr weather history for previous 24 hours

 ConditionsComfort  
Time TempWeatherWind HumidityBarometerVisibility
4:20 PM
Dec 26
30 °FPassing clouds.10 mph93%30.30 "Hg4 mi
3:50 PM34 °FSunny.6 mph81%30.30 "Hg10 mi
3:20 PM36 °FSunny.3 mph75%30.30 "Hg10 mi
2:50 PM36 °FSunny.6 mph75%30.30 "Hg10 mi
2:20 PM36 °FSunny.6 mph75%30.33 "Hg10 mi
1:50 PM36 °FSunny.5 mph81%30.33 "Hg10 mi
1:20 PM34 °FPassing clouds.3 mph87%30.33 "HgN/A
12:50 PM34 °FSunny.3 mph87%30.36 "Hg10 mi
12:20 PM34 °FSunny.2 mph87%30.36 "Hg10 mi
11:50 AM32 °FSunny.2 mph93%30.36 "Hg10 mi
11:20 AM32 °FSunny.2 mph100%30.36 "Hg10 mi
10:50 AM30 °FSunny.3 mph100%30.36 "Hg10 mi
10:20 AM30 °FSunny.1 mph100%30.36 "Hg10 mi
9:50 AM30 °FSunny.2 mph93%30.36 "Hg10 mi
9:20 AM28 °FSunny.3 mph100%30.36 "Hg10 mi
8:50 AM27 °FSunny.2 mph100%30.36 "Hg10 mi
8:20 AM27 °FClear.2 mph100%30.36 "Hg10 mi
7:50 AM25 °FClear.1 mph100%30.36 "Hg10 mi
7:20 AM28 °FClear.2 mph93%30.33 "Hg10 mi
6:50 AM28 °FClear.2 mph93%30.36 "Hg10 mi
6:20 AM27 °FFog.2 mph100%30.33 "HgN/A
5:50 AM27 °FFog.2 mph100%30.33 "HgN/A
5:20 AM28 °FClear.2 mph100%30.33 "Hg10 mi
4:50 AM30 °FClear.2 mph93%30.33 "Hg10 mi
4:20 AM30 °FClear.3 mph93%30.33 "Hg10 mi
3:20 AM32 °FClear.6 mph87%30.33 "Hg10 mi
2:50 AM30 °FClear.6 mph93%30.33 "Hg10 mi
2:20 AM30 °FClear.5 mph86%30.33 "Hg10 mi
1:50 AM32 °FClear.3 mph87%30.30 "Hg10 mi
1:20 AM32 °FClear.3 mph87%30.30 "Hg10 mi
12:50 AM32 °FPassing clouds.3 mph80%30.30 "HgN/A
12:20 AM34 °FPassing clouds.5 mph75%30.30 "HgN/A
11:20 PM
Dec 25
36 °FPassing clouds.8 mph75%30.30 "HgN/A
10:50 PM36 °FPassing clouds.8 mph75%30.27 "HgN/A
10:20 PM37 °FPassing clouds.6 mph75%30.27 "HgN/A
9:50 PM36 °FPassing clouds.7 mph81%30.27 "HgN/A
9:20 PM37 °FPassing clouds.7 mph75%30.27 "HgN/A
8:50 PM37 °FPassing clouds.6 mph75%30.24 "HgN/A
8:20 PM37 °FPassing clouds.7 mph81%30.24 "HgN/A
7:50 PM37 °FPassing clouds.10 mph81%30.21 "HgN/A
7:20 PM37 °FPassing clouds.10 mph81%30.21 "HgN/A
6:50 PM37 °FPassing clouds.12 mph87%30.18 "HgN/A
6:20 PM37 °FPassing clouds.14 mph87%30.18 "HgN/A
Weather by CustomWeather, © 2014

See weather overviewHow to use our weather pages